FENGYUN 1C DEB, 30314

Orbit data source: Space-Track

FENGYUN 1C DEB, 30314 is space debris in SSO originally from a launch on Mon, 10 May 1999 UTC launched from the Taiyaun Space Center, China (TSC). Fengyun 1C debris stems from the Chinese weather satellite Fengyun-1C, which was intentionally destroyed by a Chinese anti-satellite missile in 2007. This event dramatically increased the amount of space debris, with thousands of trackable fragments posing hazards to satellites and human spaceflight. The Fengyun 1C debris cloud has become a focal point in discussions about space sustainability and the need for international regulations to prevent the creation of new debris.

Loading next visibility...
Identifier
30314, 1999-025AAB
Orbit
SSO
Country
Flag of CNCN / PRC
Related business
Manufacturer
Unknown
Mission
Spacecraft
Bus & Motor
Unknown
Mass
Unknown
Launch date (UTC)
1999-05-10 (27 years ago)
Launch vehicle
Unknown
Launch site
Taiyaun Space Center, China (TSC)
Object type
Payload
Rocket body
Debris
Shape & HBR
Unknown shape, 0.1 m
Radar Cross Section
Small (<0.1 m²)

Expand to show TLE details & history
Last TLE update: 10 hours ago

TLE from 10 hours ago
0 FENGYUN 1C DEB
1 30314U 99025AAB 26254.92976617  .00000780  00000-0  49157-3 0  9996
2 30314  98.3989  69.1659 0141888 306.1915  52.6199 14.02111958999360
Epoch: 2026-09-11T22:18Z
TLE epoch observation values (Epoch: 2026-09-11T22:18:51.797Z)
Latitude
-0.00003°
Longitude
103.50402°
Altitude
827.737 km
Speed
7.471 km/s
True Right ascension
04h 36m 39s
True Declination
0° 00' 00"
Sunlit
Object was in daylight at epoch
Visualization orbit readout
Latitude
Unknown
Longitude
Unknown
Altitude
Unknown
Speed
Unknown
Apparent Right ascension
Unknown
Apparent Declination
Unknown
Sunlit
N/A
Visualization observer readout
Local Sidereal Time
00:16:17
Azimuth
Unknown
Elevation
Unknown
Doppler factor
Unknown
Orbital elements
Apogee altitude
986.694 km
Perigee altitude
780.622 km
Semi-major axis
7,261.795 km
Eccentricity
0.01419
Inclination
98.3989°
RAAN
69.1659°
Arg. of periapsis
306.1915°
True anomaly
53.92584°
Mean anomaly
52.6199°
Eccentric anomaly
53.27147°
Mean motion
3.50733 °/min
Orbital period
102.64 mins
BSTAR
0.00049157
Loading maneuver chart data...
Computing Atmospheric mass density...

Documentation

Showing up to 5 results
|